Regional Weather Roundup
Issued by NWS

Home | Current Version | Previous Version | Graphics & Text | Print | Product List | Glossary On
Versions: 1 2 3 4 5 6 7 8 9 10 11 12 13 14 15 16 17 18 19 20 21 22 23 24 25 26 27
000
ASUS45 KPSR 051810
RWRAZ

ARIZONA HOURLY REGIONAL WEATHER ROUNDUP
NATIONAL WEATHER SERVICE PHOENIX AZ
1100 AM MST THU MAY 05 2016

NOTE: FAIR INDICATES FEW OR NO CLOUDS BELOW 12,000 FEET WITH NO
SIGNIFICANT WEATHER AND/OR OBSTRUCTIONS TO VISIBILITY.

AZZ001>003-036-051900-
NORTHWEST ARIZONA

CITY           SKY/WX    TMP DP  RH WIND       PRES   REMARKS
BULLHEAD CITY  CLOUDY    86  27  11 S21G30    29.77F
KINGMAN        PTSUNNY   80  22  11 SE22G29   29.88F
6HR MIN TEMP:  59; 6HR MAX TEMP:  81;

$$

AZZ004>008-015-016-018-051900-
NORTH CENTRAL ARIZONA

CITY           SKY/WX    TMP DP  RH WIND       PRES   REMARKS
GRAND CANYON   MOSUNNY   72  28  19 S18G25    30.07F
6HR MIN TEMP:  36; 6HR MAX TEMP:  72;

WILLIAMS       SUNNY     66  25  20 S21       30.16F
PRESCOTT       SUNNY     73  28  18 S20G26    30.00F
6HR MIN TEMP:  50; 6HR MAX TEMP:  74;

FLAGSTAFF      SUNNY     64  26  23 S14G23    30.13F
6HR MIN TEMP:  34; 6HR MAX TEMP:  64;

PAYSON         SUNNY     75  23  14 S10G16    30.07F
PAGE           CLOUDY    76  28  17 NE7       29.97F
6HR MIN TEMP:  59; 6HR MAX TEMP:  76;

$$

AZZ009>014-017-051900-
NORTHEAST ARIZONA

CITY           SKY/WX    TMP DP  RH WIND       PRES   REMARKS
WINSLOW        SUNNY     82  29  14 SE21G28   30.02F
6HR MIN TEMP:  54; 6HR MAX TEMP:  82;

SAINT JOHNS    MOSUNNY   80  30  16 S21G33    30.07F
6HR MIN TEMP:  52; 6HR MAX TEMP:  81;

WINDOW ROCK    MOSUNNY   75  31  19 SE14      30.16F
6HR MIN TEMP:  37; 6HR MAX TEMP:  75;

SHOW LOW       SUNNY     73  27  17 S25G31    30.13F
$$

AZZ023-051900-
GREATER PHOENIX AREA

CITY           SKY/WX    TMP DP  RH WIND       PRES   REMARKS
PHOENIX        PTSUNNY   87  28  12 SE10      29.82F
6HR MIN TEMP:  72; 6HR MAX TEMP:  88;

BUCKEYE        SUNNY     86  32  14 SE3       29.83F
GLENDALE       PTSUNNY   88  28  11 SE7       29.84F
LUKE AFB       SUNNY     89  28  11 SE8G16    29.81F
6HR MIN TEMP:  62; 6HR MAX TEMP:  89; 6HR PCP: TRACE;

DEER VALLEY    SUNNY     88  27  11 S18G29    29.84F
6HR MIN TEMP:  70; 6HR MAX TEMP:  88;

SCOTTSDALE     SUNNY     87  23   9 S10       29.87F
6HR MIN TEMP:  71; 6HR MAX TEMP:  87;

MESA-FALCON    MOSUNNY  N/A N/A N/A SW12      29.83F
MESA-GATEWAY   MOSUNNY   90  30  12 SW9       29.86F
CHANDLER       MOSUNNY   88  27  11 S12       29.85F
$$

AZZ027-028-051900-
SOUTHWEST MARICOPA COUNTY AND PINAL COUNTY

CITY           SKY/WX    TMP DP  RH WIND       PRES   REMARKS
CASA GRANDE    SUNNY     90  28  11 S18G31    29.86F
6HR MIN TEMP:  61; 6HR MAX TEMP:  90;

GILA BEND      PTSUNNY   90  31  12 S14G24    29.79F
6HR MIN TEMP:  66; 6HR MAX TEMP:  90;

$$

AZZ503-504-507>509-051900-
SOUTHEAST ARIZONA

CITY           SKY/WX    TMP DP  RH WIND       PRES   REMARKS
TUCSON         SUNNY     88  19   8 S15G23    29.94F
6HR MIN TEMP:  63; 6HR MAX TEMP:  88;

DAVIS-MONTHAN  SUNNY     85  25  11 W8        29.93F
6HR MIN TEMP:  62; 6HR MAX TEMP:  85;

RYAN FIELD     SUNNY     88  23   9 S13G20    29.93F
NOGALES        SUNNY     84  18   8 S16G23    30.03R
6HR MIN TEMP:  52; 6HR MAX TEMP:  84;

SIERRA VISTA   SUNNY     81  19  10 S12G22    30.07S
6HR MIN TEMP:  60; 6HR MAX TEMP:  81; 6HR PCP: TRACE;

DOUGLAS        SUNNY     84  27  12 S18G26    30.04F
6HR MIN TEMP:  56; 6HR MAX TEMP:  84;

SAFFORD        SUNNY     87  27  11 SE9       29.96F
6HR MIN TEMP:  69; 6HR MAX TEMP:  87;

$$

AZZ020-021-025-026-031-051900-
SOUTHWEST ARIZONA

CITY           SKY/WX    TMP DP  RH WIND       PRES   REMARKS
YUMA           PTSUNNY   81  48  31 S12       29.79F
6HR MIN TEMP:  68; 6HR MAX TEMP:  81;

$$

CAZ031-033-041-043-047-048-061-051900-
SOUTHERN CALIFORNIA

CITY           SKY/WX    TMP DP  RH WIND       PRES   REMARKS
DOWNTOWN L.A.  CLOUDY    65  52  62 CALM      29.91R
6HR MIN TEMP:  59; 6HR MAX TEMP:  65;

L.A. AIRPORT   PTSUNNY   63  51  65 S7        29.92S
6HR MIN TEMP:  59; 6HR MAX TEMP:  63;

SAN DIEGO      CLOUDY    65  51  60 S10       29.95S
6HR MIN TEMP:  62; 6HR MAX TEMP:  65;

BURBANK        PTSUNNY   64  49  57 S10       29.90F
6HR MIN TEMP:  57; 6HR MAX TEMP:  64;

ONTARIO        CLOUDY    63  46  54 VRB3      29.91S
6HR MIN TEMP:  55; 6HR MAX TEMP:  63; 6HR PCP: TRACE;

RIVERSIDE      CLOUDY    66  47  50 SW5       29.91S
6HR MIN TEMP:  56; 6HR MAX TEMP:  66;

PALM SPRINGS   SUNNY     77  43  29 NW14G25   29.79S
6HR MIN TEMP:  63; 6HR MAX TEMP:  77;

EL CENTRO NAS  PTSUNNY   79  40  25 W25       29.79F
6HR MIN TEMP:  40; 6HR MAX TEMP:  79; 6HR PCP: TRACE;

IMPERIAL       SUNNY     79  42  26 W15       29.77F
6HR MIN TEMP:  65; 6HR MAX TEMP:  79;

BLYTHE         SUNNY     82  43  25 S21       29.78S
6HR MIN TEMP:  68; 6HR MAX TEMP:  82;

NEEDLES        MOSUNNY   88  22   9 S17G30    29.77F
6HR MIN TEMP:  73; 6HR MAX TEMP:  89;

$$

NVZ020-UTZ003-051900-
SOUTHERN NEVADA-UTAH

CITY           SKY/WX    TMP DP  RH WIND       PRES   REMARKS
LAS VEGAS      CLOUDY    80  23  12 S17G25    29.77F
6HR MIN TEMP:  69; 6HR MAX TEMP:  80;

SALT LAKE CITY CLOUDY    80  32  17 S8        29.90F
6HR MIN TEMP:  63; 6HR MAX TEMP:  80;

$$

NMZ009-TXZ055-051900-
NEW MEXICO-WEST TEXAS

CITY           SKY/WX    TMP DP  RH WIND       PRES   REMARKS
ALBUQUERQUE    MOSUNNY   75  23  14 SW6       30.18F
6HR MIN TEMP:  53; 6HR MAX TEMP:  75;

EL PASO        PTSUNNY   84  23  10 SE13G24   30.10F
6HR MIN TEMP:  64; 6HR MAX TEMP:  84;

$$


........................KEY........................
SKY/WX - SKY CONDITION/WEATHER
TMP    - TEMPERATURE IN FAHRENHEIT
DP     - DEW POINT IN FAHRENHEIT
RH     - RELATIVE HUMIDITY IN PERCENT
WIND   - DIRECTION AND SPEED IN MILES PER HOUR (MPH)
VRB    - VARIABLE WIND DIRECTION
PRES   - MEAN SEA LEVEL PRESSURE IN INCHES OF MERCURY
         F - FALLING PRESSURE   R - RISING PRESSURE
         S - STEADY PRESSURE
VSB    - VISIBILITY IN MILES
HX     - HEAT INDEX IN FAHRENHEIT
WCI    - WIND CHILL INDEX IN FAHRENHEIT
TC     - TEMPERATURE IN CELSIUS WHICH IS ALSO KNOWN AS
         TEMPERATURE IN CENTIGRADE
AFB    - AIR FORCE BASE
         LUKE AFB IS LUKE AIR FORCE BASE
         DAVIS-MONTHAN IS DAVIS-MONTHAN AIR FORCE BASE
NAS    - NAVAL AIR STATION
         EL CENTRO NAS IS EL CENTRO NAVAL AIR STATION
N/A    - NOT AVAILABLE





USA.gov is the U.S. government's official web portal to all federal, state and local government web resources and services.